This is the latest recevied weather packets stored in our database for station/object KK6MIG-13. If no packets are shown the sender has not sent any weather packets the latest 10 day(s).
| Time | Temp. | Humidity | Pressure | Rain* | Wind** | Luminosity | Snow |
|---|---|---|---|---|---|---|---|
| 1788032042 | 16.11° C | 8% | 1014.8 hPa | 0 mm | - | 1049 W/m² | - |
| 1788031982 | 15.56° C | 8% | 1014.9 hPa | 0 mm | - | 1049 W/m² | - |
| 1788031922 | 15.56° C | 7% | 1014.8 hPa | 0 mm | - | 1049 W/m² | - |
| 1788031862 | 15.56° C | 8% | 1014.9 hPa | 0 mm | - | 1078 W/m² | - |
| 1788031802 | 15.56° C | 8% | 1014.9 hPa | 0 mm | - | 1063 W/m² | - |
| 1788031742 | 15.56° C | 11% | 1014.9 hPa | 0 mm | - | 1007 W/m² | - |
| 1788031678 | 15.56° C | 8% | 1014.9 hPa | 0 mm | - | 1028 W/m² | - |
| 1788031627 | 15.56° C | 14% | 1014.9 hPa | 0 mm | - | 1028 W/m² | - |
| 1788031622 | 15.56° C | 12% | 1014.9 hPa | 0 mm | - | 1028 W/m² | - |
| 1788031515 | 15.56° C | 15% | 1014.9 hPa | 0 mm | - | 1028 W/m² | - |
| 1788031511 | 15.56° C | 18% | 1014.9 hPa | 0 mm | - | 1028 W/m² | - |
| 1788031507 | 15.56° C | 15% | 1014.9 hPa | 0 mm | - | 1028 W/m² | - |
| 1788031318 | 16.11° C | 17% | 1015 hPa | 0 mm | - | 1028 W/m² | - |
| 1788031258 | 16.11° C | 17% | 1015 hPa | 0 mm | - | 1028 W/m² | - |
| 1788031198 | 16.11° C | 14% | 1015 hPa | 0 mm | - | 1028 W/m² | - |
| 1788031138 | 16.11° C | 7% | 1015 hPa | 0 mm | - | 1028 W/m² | - |
| 1788031079 | 16.11° C | 7% | 1015 hPa | 0 mm | - | 1028 W/m² | - |
| 1788031026 | 15.56° C | 4% | 1015 hPa | 0 mm | - | 1028 W/m² | - |
| 1788031022 | 16.11° C | 6% | 1015 hPa | 0 mm | - | 1028 W/m² | - |
| 1788030898 | 15.56° C | 7% | 1015 hPa | 0 mm | - | 573 W/m² | - |
| 1788030838 | 15.56° C | 8% | 1015.1 hPa | 0 mm | - | 573 W/m² | - |
| 1788030778 | 15.56° C | 8% | 1015.1 hPa | 0 mm | - | 573 W/m² | - |
| 1788030718 | 15.56° C | 9% | 1015.1 hPa | 0 mm | - | 573 W/m² | - |
| 1788030658 | 15.56° C | 8% | 1015.1 hPa | 0 mm | - | 573 W/m² | - |
| 1788030598 | 15.56° C | 4% | 1015.1 hPa | 0 mm | - | 573 W/m² | - |
* Rain latest hour (hover to see other rain measurements)
** Current wind speed in m/s (hover to see current wind gust speed)